| time (UTC) | temp F | wind direction | speed knots | gust knots | rain 1hr in | rain 24hr in | rain mn in | humidity % | barometer mb |
| 20260505101548 | 52 | 10 | 2.6 | 0.0 | 0.00 | 0.00 | 0.00 | 96 | 1018.0 |
| 20260505100547 | 52 | 10 | 2.6 | 0.0 | 0.00 | 0.00 | 0.00 | 95 | 1018.0 |
| 20260505095547 | 53 | 0 | 1.7 | 0.0 | 0.00 | 0.00 | 0.00 | 94 | 1018.0 |
| 20260505094546 | 53 | 0 | 1.7 | 0.0 | 0.00 | 0.00 | 0.00 | 94 | 1018.0 |
| 20260505093545 | 53 | 0 | 1.7 | 0.0 | 0.00 | 0.00 | 0.00 | 94 | 1018.0 |
| 20260505092545 | 53 | 0 | 1.7 | 0.0 | 0.00 | 0.00 | 0.00 | 94 | 1018.0 |
| 20260505091544 | 53 | 0 | 1.7 | 0.0 | 0.00 | 0.00 | 0.00 | 94 | 1018.0 |
| 20260505090544 | 53 | 80 | 2.6 | 0.0 | 0.00 | 0.00 | 0.00 | 94 | 1018.0 |
| 20260505085543 | 53 | 80 | 2.6 | 0.0 | 0.00 | 0.00 | 0.00 | 94 | 1018.0 |
| 20260505084543 | 53 | 80 | 2.6 | 0.0 | 0.00 | 0.00 | 0.00 | 94 | 1018.0 |
| 20260505083542 | 53 | 80 | 2.6 | 0.0 | 0.00 | 0.00 | 0.00 | 94 | 1018.0 |
| 20260505082541 | 53 | 80 | 2.6 | 0.0 | 0.00 | 0.00 | 0.00 | 94 | 1018.0 |
| 20260505081541 | 53 | 80 | 2.6 | 0.0 | 0.00 | 0.00 | 0.00 | 94 | 1018.0 |
| 20260505080540 | 53 | 80 | 2.6 | 0.0 | 0.00 | 0.00 | 0.00 | 95 | 1018.0 |
| 20260505075540 | 53 | 360 | 2.6 | 0.0 | 0.00 | 0.00 | 0.00 | 95 | 1018.0 |
| 20260505074539 | 53 | 360 | 2.6 | 0.0 | 0.00 | 0.00 | 0.00 | 95 | 1018.0 |
| 20260505073539 | 53 | 360 | 2.6 | 0.0 | 0.00 | 0.00 | 0.00 | 94 | 1018.0 |
| 20260505072538 | 53 | 360 | 2.6 | 0.0 | 0.00 | 0.00 | 0.00 | 93 | 1019.0 |
| 20260505070537 | 53 | 360 | 2.6 | 0.0 | 0.00 | 0.00 | 0.00 | 90 | 1019.0 |
| 20260505065536 | 53 | 0 | 0.9 | 0.0 | 0.00 | 0.00 | 0.00 | 88 | 1019.0 |
| 20260505064536 | 53 | 0 | 0.9 | 0.0 | 0.00 | 0.00 | 0.00 | 88 | 1019.0 |
| 20260505063535 | 55 | 0 | 0.9 | 0.0 | 0.00 | 0.00 | 0.00 | 85 | 1019.0 |
| 20260505062534 | 55 | 0 | 0.9 | 0.0 | 0.00 | 0.00 | 0.00 | 85 | 1019.0 |
| 20260505061534 | 55 | 0 | 0.9 | 0.0 | 0.00 | 0.00 | 0.00 | 85 | 1019.0 |
| 20260505060533 | 55 | 0 | 0.9 | 0.0 | 0.00 | 0.00 | 0.00 | 85 | 1019.0 |
| 20260505055533 | 55 | 0 | 1.7 | 0.0 | 0.00 | 0.00 | 0.00 | 85 | 1019.0 |
| 20260505054532 | 55 | 0 | 1.7 | 0.0 | 0.00 | 0.00 | 0.00 | 86 | 1019.0 |
| 20260505053531 | 56 | 0 | 1.7 | 0.0 | 0.00 | 0.00 | 0.00 | 83 | 1019.0 |
| 20260505052531 | 56 | 0 | 1.7 | 0.0 | 0.00 | 0.00 | 0.00 | 82 | 1019.0 |
| 20260505051530 | 56 | 0 | 1.7 | 0.0 | 0.00 | 0.00 | 0.00 | 82 | 1019.0 |
| 20260505050530 | 57 | 110 | 5.2 | 0.0 | 0.00 | 0.00 | 0.00 | 78 | 1019.0 |
| 20260505041527 | 57 | 110 | 5.2 | 0.0 | 0.00 | 0.00 | 0.00 | 79 | 1020.0 |
| 20260505040526 | 57 | 110 | 5.2 | 0.0 | 0.00 | 0.00 | 0.00 | 79 | 1020.0 |
| 20260505035526 | 57 | 190 | 3.5 | 0.0 | 0.00 | 0.00 | 0.00 | 80 | 1020.0 |
| 20260505034526 | 57 | 190 | 3.5 | 0.0 | 0.00 | 0.00 | 0.00 | 80 | 1020.0 |
| 20260505033525 | 57 | 190 | 3.5 | 0.0 | 0.00 | 0.00 | 0.00 | 80 | 1020.0 |
| 20260505032524 | 57 | 190 | 3.5 | 0.0 | 0.00 | 0.00 | 0.00 | 80 | 1020.0 |
| 20260505031524 | 57 | 190 | 3.5 | 0.0 | 0.00 | 0.00 | 0.00 | 80 | 1020.0 |
| 20260505030523 | 57 | 190 | 3.5 | 0.0 | 0.00 | 0.00 | 0.00 | 79 | 1020.0 |
| 20260505025523 | 57 | 40 | 2.6 | 0.0 | 0.00 | 0.00 | 0.00 | 78 | 1020.0 |
| 20260505024522 | 57 | 40 | 2.6 | 0.0 | 0.00 | 0.00 | 0.00 | 78 | 1020.0 |
| 20260505023522 | 57 | 40 | 2.6 | 0.0 | 0.00 | 0.00 | 0.00 | 78 | 1020.0 |
| 20260505022521 | 57 | 40 | 2.6 | 0.0 | 0.00 | 0.00 | 0.00 | 77 | 1019.0 |
| 20260505021521 | 57 | 40 | 2.6 | 0.0 | 0.00 | 0.00 | 0.00 | 77 | 1019.0 |
| 20260505020520 | 57 | 40 | 2.6 | 0.0 | 0.00 | 0.00 | 0.00 | 77 | 1019.0 |
| 20260505015519 | 57 | 110 | 4.3 | 0.0 | 0.00 | 0.00 | 0.00 | 75 | 1019.0 |
| 20260505014519 | 57 | 110 | 4.3 | 0.0 | 0.00 | 0.00 | 0.00 | 75 | 1019.0 |
| 20260505013518 | 57 | 110 | 4.3 | 0.0 | 0.00 | 0.00 | 0.00 | 75 | 1019.0 |
| 20260505012518 | 57 | 110 | 4.3 | 0.0 | 0.00 | 0.00 | 0.00 | 75 | 1018.0 |
| 20260505011517 | 57 | 110 | 4.3 | 0.0 | 0.00 | 0.00 | 0.00 | 75 | 1018.0 |
| 20260505010516 | 57 | 110 | 4.3 | 0.0 | 0.00 | 0.00 | 0.00 | 75 | 1018.0 |
| 20260505005516 | 57 | 60 | 4.3 | 0.0 | 0.00 | 0.00 | 0.00 | 75 | 1018.0 |
| 20260505004515 | 57 | 60 | 4.3 | 0.0 | 0.00 | 0.00 | 0.00 | 75 | 1018.0 |
| 20260505003515 | 58 | 60 | 4.3 | 0.0 | 0.00 | 0.00 | 0.00 | 75 | 1018.0 |
| 20260505002514 | 58 | 60 | 4.3 | 0.0 | 0.00 | 0.00 | 0.00 | 75 | 1017.0 |
| 20260505001514 | 58 | 60 | 4.3 | 0.0 | 0.00 | 0.00 | 0.00 | 75 | 1017.0 |
| 20260505000513 | 58 | 60 | 4.3 | 0.0 | 0.00 | 0.00 | 0.00 | 75 | 1017.0 |
| 20260504235512 | 60 | 70 | 4.3 | 0.0 | 0.00 | 0.00 | 0.00 | 77 | 1017.0 |
| 20260504234512 | 60 | 70 | 4.3 | 0.0 | 0.00 | 0.00 | 0.00 | 77 | 1017.0 |
| 20260504233511 | 60 | 70 | 4.3 | 0.0 | 0.00 | 0.00 | 0.00 | 77 | 1017.0 |
| 20260504232511 | 58 | 110 | 2.6 | 3.5 | 0.00 | 0.00 | 0.00 | 72 | 1016.0 |
| 20260504231510 | 58 | 110 | 2.6 | 3.5 | 0.00 | 0.00 | 0.00 | 72 | 1016.0 |
| 20260504230510 | 58 | 110 | 2.6 | 3.5 | 0.00 | 0.00 | 0.00 | 72 | 1016.0 |
| 20260504225509 | 58 | 110 | 2.6 | 3.5 | 0.00 | 0.00 | 0.00 | 72 | 1016.0 |
| 20260504224509 | 62 | 70 | 4.3 | 0.0 | 0.00 | 0.00 | 0.00 | 68 | 1016.0 |
| 20260504223508 | 62 | 70 | 4.3 | 0.0 | 0.00 | 0.00 | 0.00 | 68 | 1016.0 |
| 20260504222507 | 60 | 122 | 2.6 | 4.3 | 0.00 | 0.00 | 0.00 | 71 | 1014.0 |
| 20260504221507 | 60 | 122 | 2.6 | 4.3 | 0.00 | 0.00 | 0.00 | 71 | 1015.0 |
| 20260504220506 | 60 | 122 | 2.6 | 4.3 | 0.00 | 0.00 | 0.00 | 73 | 1015.0 |
| 20260504215506 | 60 | 60 | 8.7 | 0.0 | 0.00 | 0.00 | 0.00 | 73 | 1015.0 |
| 20260504214505 | 60 | 60 | 8.7 | 0.0 | 0.00 | 0.00 | 0.00 | 73 | 1015.0 |
| 20260504213505 | 60 | 60 | 8.7 | 0.0 | 0.00 | 0.00 | 0.00 | 72 | 1014.0 |
| 20260504212504 | 60 | 60 | 8.7 | 0.0 | 0.00 | 0.00 | 0.00 | 72 | 1014.0 |
| 20260504211504 | 60 | 60 | 8.7 | 0.0 | 0.00 | 0.00 | 0.00 | 72 | 1014.0 |
| 20260504210503 | 60 | 60 | 8.7 | 0.0 | 0.00 | 0.00 | 0.00 | 70 | 1014.0 |
| 20260504205502 | 60 | 117 | 2.6 | 3.5 | 0.00 | 0.00 | 0.00 | 68 | 1014.0 |
| 20260504204502 | 60 | 117 | 2.6 | 3.5 | 0.00 | 0.00 | 0.00 | 68 | 1014.0 |
| 20260504203501 | 60 | 117 | 2.6 | 3.5 | 0.00 | 0.00 | 0.00 | 68 | 1014.0 |
| 20260504202501 | 60 | 100 | 2.6 | 3.5 | 0.00 | 0.00 | 0.00 | 68 | 1014.0 |
| 20260504201500 | 60 | 100 | 2.6 | 3.5 | 0.00 | 0.00 | 0.00 | 68 | 1014.0 |
| 20260504200500 | 60 | 100 | 2.6 | 3.5 | 0.00 | 0.00 | 0.00 | 71 | 1014.0 |
| 20260504195459 | 60 | 100 | 2.6 | 3.5 | 0.00 | 0.00 | 0.00 | 71 | 1014.0 |
| 20260504194459 | 60 | 120 | 4.3 | 0.0 | 0.00 | 0.00 | 0.00 | 78 | 1014.0 |
| 20260504193458 | 62 | 100 | 2.6 | 3.5 | 0.00 | 0.00 | 0.00 | 68 | 1014.0 |
| 20260504192457 | 63 | 120 | 2.6 | 5.2 | 0.00 | 0.00 | 0.00 | 69 | 1014.0 |
| 20260504191457 | 63 | 0 | 2.6 | 0.0 | 0.00 | 0.00 | 0.00 | 68 | 1014.0 |
| 20260504190456 | 63 | 0 | 2.6 | 0.0 | 0.00 | 0.00 | 0.00 | 68 | 1014.0 |
| 20260504185456 | 63 | 150 | 9.6 | 0.0 | 0.00 | 0.00 | 0.00 | 66 | 1014.0 |
| 20260504184455 | 63 | 150 | 9.6 | 0.0 | 0.00 | 0.00 | 0.00 | 66 | 1014.0 |
| 20260504183455 | 63 | 150 | 9.6 | 0.0 | 0.00 | 0.00 | 0.00 | 67 | 1014.0 |
| 20260504182454 | 63 | 150 | 9.6 | 0.0 | 0.00 | 0.00 | 0.00 | 67 | 1014.0 |
| 20260504181453 | 63 | 150 | 9.6 | 0.0 | 0.00 | 0.00 | 0.00 | 67 | 1014.0 |
| 20260504180453 | 63 | 120 | 5.2 | 0.0 | 0.00 | 0.00 | 0.00 | 66 | 1014.0 |
| 20260504175452 | 63 | 120 | 5.2 | 0.0 | 0.00 | 0.00 | 0.00 | 67 | 1014.0 |
| 20260504174452 | 63 | 120 | 5.2 | 0.0 | 0.00 | 0.00 | 0.00 | 69 | 1015.0 |
| 20260504173451 | 63 | 120 | 5.2 | 0.0 | 0.00 | 0.00 | 0.00 | 70 | 1015.0 |
| 20260504172450 | 63 | 120 | 5.2 | 0.0 | 0.00 | 0.00 | 0.00 | 71 | 1016.0 |
| 20260504171450 | 63 | 120 | 7.0 | 0.0 | 0.00 | 0.00 | 0.00 | 76 | 1016.0 |
| 20260504170449 | 63 | 120 | 7.0 | 0.0 | 0.00 | 0.00 | 0.00 | 76 | 1016.0 |
| 20260504160446 | 63 | 0 | 3.5 | 0.0 | 0.00 | 0.00 | 0.00 | 87 | 1016.0 |
| 20260504150443 | 63 | 0 | 0.9 | 0.0 | 0.00 | 0.00 | 0.00 | 99 | 1016.0 |
| 20260504140439 | 56 | 0 | 1.7 | 0.0 | 0.00 | 0.00 | 0.00 | 99 | 1017.0 |
| 20260504130436 | 53 | 360 | 2.6 | 0.0 | 0.00 | 0.00 | 0.00 | 99 | 1018.0 |
| 20260504110429 | 53 | 0 | 0.9 | 0.0 | 0.00 | 0.00 | 0.00 | 99 | 1018.0 |